When you browse on this site, cookies collect data to enhance your experience and personalize the content and advertising you see.
Visit our Privacy Policy to learn more. By continuing to use the site, you agree to this use of cookies and data.
  • In Österreich
  • Länderverzeichnis
  • Für 7 Tage
  • Wassertemperatur
  • Wetterkarte
  • News
  • Widgets
  • user-avatar
    Anmelden

    Stündliche Wetter Batina

    Heute, 15 Dezember, Sonntag

    Zeit Temperatur Niederschläge Wind Luftdruck Luftfeuchtigkeit
    00:00 +9°C° 0 mm 3 m/S 671 mmHg 67%
    01:00 +9°C° 0 mm 3 m/S 671 mmHg 67%
    02:00 +8°C° 0 mm 3 m/S 671 mmHg 67%
    03:00 +8°C° 0 mm 2 m/S 670 mmHg 67%
    04:00 +8°C° 0 mm 3 m/S 670 mmHg 65%
    05:00 +8°C° 0 mm 3 m/S 670 mmHg 63%
    06:00 +8°C° 0 mm 3 m/S 671 mmHg 59%
    07:00 +10°C° 0 mm 3 m/S 671 mmHg 56%
    08:00 +11°C° 0 mm 3 m/S 672 mmHg 53%
    09:00 +13°C° 0 mm 3 m/S 673 mmHg 50%
    10:00 +14°C° 0 mm 4 m/S 673 mmHg 46%
    11:00 +15°C° 0 mm 4 m/S 673 mmHg 43%
    12:00 +17°C° 0 mm 4 m/S 673 mmHg 39%
    13:00 +17°C° 0 mm 4 m/S 673 mmHg 41%
    14:00 +15°C° 0 mm 4 m/S 672 mmHg 43%
    15:00 +15°C° 0 mm 4 m/S 672 mmHg 45%
    16:00 +13°C° 0 mm 3 m/S 672 mmHg 50%
    17:00 +12°C° 0 mm 3 m/S 671 mmHg 55%
    18:00 +10°C° 0 mm 3 m/S 671 mmHg 60%
    19:00 +10°C° 0 mm 3 m/S 671 mmHg 61%
    20:00 +10°C° 0 mm 3 m/S 671 mmHg 62%
    21:00 +9°C° 0 mm 3 m/S 671 mmHg 62%
    22:00 +9°C° 0 mm 3 m/S 671 mmHg 63%
    23:00 +9°C° 0 mm 3 m/S 671 mmHg 64%

    Morgen, 16 Dezember, Montag

    Zeit Temperatur Niederschläge Wind Luftdruck Luftfeuchtigkeit
    00:00 +9°C° 0 mm 3 m/S 671 mmHg 65%
    01:00 +8°C° 0 mm 3 m/S 671 mmHg 67%
    02:00 +8°C° 0 mm 3 m/S 670 mmHg 69%
    03:00 +8°C° 0 mm 3 m/S 670 mmHg 71%
    04:00 +7°C° 0 mm 3 m/S 670 mmHg 72%
    05:00 +7°C° 0 mm 3 m/S 670 mmHg 73%
    06:00 +7°C° 0 mm 2 m/S 669 mmHg 74%
    07:00 +8°C° 0 mm 3 m/S 670 mmHg 69%
    08:00 +10°C° 0 mm 3 m/S 670 mmHg 64%
    09:00 +11°C° 0 mm 3 m/S 671 mmHg 59%
    10:00 +12°C° 0 mm 4 m/S 671 mmHg 54%
    11:00 +14°C° 0 mm 4 m/S 671 mmHg 49%
    12:00 +15°C° 0 mm 5 m/S 670 mmHg 44%
    13:00 +14°C° 0 mm 5 m/S 670 mmHg 46%
    14:00 +14°C° 0 mm 4 m/S 669 mmHg 47%
    15:00 +13°C° 0 mm 4 m/S 668 mmHg 49%
    16:00 +12°C° 0 mm 4 m/S 668 mmHg 55%
    17:00 +11°C° 0 mm 4 m/S 667 mmHg 60%
    18:00 +9°C° 0 mm 3 m/S 667 mmHg 66%
    19:00 +9°C° 0 mm 3 m/S 667 mmHg 66%
    20:00 +8°C° 0 mm 4 m/S 667 mmHg 66%
    21:00 +8°C° 0 mm 4 m/S 666 mmHg 66%
    22:00 +8°C° 0 mm 4 m/S 666 mmHg 67%
    23:00 +8°C° 0 mm 4 m/S 666 mmHg 67%

    übermorgen, 17 Dezember, Dienstag

    Zeit Temperatur Niederschläge Wind Luftdruck Luftfeuchtigkeit
    00:00 +8°C° 0 mm 4 m/S 666 mmHg 68%
    01:00 +8°C° 0 mm 4 m/S 665 mmHg 67%
    02:00 +9°C° 0 mm 3 m/S 665 mmHg 66%
    03:00 +9°C° 0 mm 3 m/S 664 mmHg 65%
    04:00 +8°C° 0 mm 3 m/S 664 mmHg 64%
    05:00 +8°C° 0 mm 3 m/S 664 mmHg 64%
    06:00 +8°C° 0 mm 3 m/S 663 mmHg 63%
    07:00 +10°C° 0 mm 4 m/S 664 mmHg 57%
    08:00 +10°C° 0 mm 5 m/S 664 mmHg 51%
    09:00 +13°C° 0 mm 6 m/S 665 mmHg 45%
    10:00 +13°C° 0 mm 9 m/S 664 mmHg 40%
    11:00 +13°C° 0 mm 11 m/S 664 mmHg 35%
    12:00 +14°C° 0 mm 14 m/S 663 mmHg 31%
    13:00 +13°C° 0.1 mm 13 m/S 662 mmHg 35%
    14:00 +12°C° 0.1 mm 13 m/S 661 mmHg 40%
    15:00 +9°C° 0.1 mm 13 m/S 661 mmHg 45%
    16:00 +9°C° 0.1 mm 10 m/S 661 mmHg 49%
    17:00 +9°C° 0.1 mm 8 m/S 661 mmHg 54%
    18:00 +8°C° 0.1 mm 5 m/S 661 mmHg 59%
    19:00 +8°C° 0.1 mm 5 m/S 661 mmHg 64%
    20:00 +7°C° 0.1 mm 5 m/S 661 mmHg 69%
    21:00 +6°C° 0.1 mm 5 m/S 662 mmHg 74%
    22:00 +5°C° 0 mm 5 m/S 662 mmHg 77%
    23:00 +3°C° 0 mm 5 m/S 662 mmHg 80%

    18 Dezember, Mittwoch

    Zeit Temperatur Niederschläge Wind Luftdruck Luftfeuchtigkeit
    00:00 +2°C° 0 mm 5 m/S 661 mmHg 83%
    01:00 +3°C° 0 mm 4 m/S 662 mmHg 82%
    02:00 +3°C° 0 mm 4 m/S 662 mmHg 81%
    03:00 +3°C° 0 mm 3 m/S 663 mmHg 79%
    04:00 +3°C° 0 mm 3 m/S 663 mmHg 81%
    05:00 +3°C° 0 mm 3 m/S 663 mmHg 83%
    06:00 +3°C° 0 mm 3 m/S 664 mmHg 84%
    07:00 +3°C° 0 mm 4 m/S 664 mmHg 79%
    08:00 +4°C° 0 mm 4 m/S 665 mmHg 75%
    09:00 +3°C° 0 mm 5 m/S 666 mmHg 70%
    10:00 +4°C° 0 mm 6 m/S 666 mmHg 67%
    11:00 +4°C° 0 mm 6 m/S 666 mmHg 65%
    12:00 +5°C° 0 mm 6 m/S 666 mmHg 62%
    13:00 +5°C° 0 mm 6 m/S 666 mmHg 64%
    14:00 +5°C° 0 mm 6 m/S 667 mmHg 65%
    15:00 +5°C° 0 mm 6 m/S 667 mmHg 66%
    16:00 +5°C° 0 mm 5 m/S 667 mmHg 69%
    17:00 +5°C° 0 mm 4 m/S 668 mmHg 71%
    18:00 +4°C° 0 mm 4 m/S 668 mmHg 74%
    19:00 +4°C° 0 mm 3 m/S 668 mmHg 72%
    20:00 +3°C° 0 mm 3 m/S 669 mmHg 70%
    21:00 +4°C° 0 mm 2 m/S 669 mmHg 68%
    22:00 +3°C° 0 mm 2 m/S 669 mmHg 67%
    23:00 +3°C° 0 mm 2 m/S 669 mmHg 66%

    19 Dezember, Donnerstag

    Zeit Temperatur Niederschläge Wind Luftdruck Luftfeuchtigkeit
    00:00 +3°C° 0 mm 2 m/S 670 mmHg 65%
    01:00 +3°C° 0 mm 2 m/S 670 mmHg 61%
    02:00 +3°C° 0 mm 2 m/S 669 mmHg 57%
    03:00 +4°C° 0 mm 1 m/S 669 mmHg 53%
    04:00 +5°C° 0 mm 1 m/S 670 mmHg 50%
    05:00 +5°C° 0 mm 1 m/S 670 mmHg 48%
    06:00 +5°C° 0 mm 1 m/S 670 mmHg 46%
    07:00 +7°C° 0 mm 1 m/S 671 mmHg 43%
    08:00 +9°C° 0 mm 1 m/S 672 mmHg 40%
    09:00 +11°C° 0 mm 1 m/S 673 mmHg 37%
    10:00 +12°C° 0 mm 2 m/S 673 mmHg 40%
    11:00 +12°C° 0 mm 3 m/S 673 mmHg 43%
    12:00 +13°C° 0 mm 3 m/S 673 mmHg 47%
    13:00 +13°C° 0 mm 3 m/S 672 mmHg 49%
    14:00 +12°C° 0 mm 3 m/S 672 mmHg 52%
    15:00 +12°C° 0 mm 4 m/S 672 mmHg 55%
    16:00 +11°C° 0 mm 3 m/S 672 mmHg 57%
    17:00 +10°C° 0 mm 3 m/S 671 mmHg 60%
    18:00 +9°C° 0 mm 3 m/S 671 mmHg 63%
    19:00 +8°C° 0 mm 3 m/S 671 mmHg 64%
    20:00 +8°C° 0 mm 3 m/S 671 mmHg 64%
    21:00 +8°C° 0 mm 3 m/S 671 mmHg 65%
    22:00 +7°C° 0 mm 3 m/S 671 mmHg 66%
    23:00 +7°C° 0 mm 3 m/S 671 mmHg 68%

    20 Dezember, Freitag

    Zeit Temperatur Niederschläge Wind Luftdruck Luftfeuchtigkeit
    00:00 +7°C° 0 mm 3 m/S 671 mmHg 69%
    01:00 +7°C° 0 mm 3 m/S 670 mmHg 70%
    02:00 +5°C° 0 mm 3 m/S 670 mmHg 70%
    03:00 +5°C° 0 mm 3 m/S 670 mmHg 71%
    04:00 +5°C° 0 mm 3 m/S 669 mmHg 69%
    05:00 +5°C° 0 mm 3 m/S 669 mmHg 67%
    06:00 +5°C° 0 mm 3 m/S 669 mmHg 65%
    07:00 +7°C° 0 mm 4 m/S 669 mmHg 59%
    08:00 +8°C° 0 mm 4 m/S 670 mmHg 54%
    09:00 +10°C° 0 mm 4 m/S 670 mmHg 48%
    10:00 +10°C° 0 mm 6 m/S 670 mmHg 44%
    11:00 +11°C° 0 mm 7 m/S 670 mmHg 41%
    12:00 +12°C° 0 mm 8 m/S 669 mmHg 37%
    13:00 +12°C° 0 mm 7 m/S 669 mmHg 38%
    14:00 +11°C° 0 mm 7 m/S 668 mmHg 39%
    15:00 +11°C° 0 mm 6 m/S 667 mmHg 41%
    16:00 +10°C° 0 mm 6 m/S 667 mmHg 43%
    17:00 +8°C° 0 mm 5 m/S 667 mmHg 45%
    18:00 +7°C° 0 mm 5 m/S 667 mmHg 47%
    19:00 +7°C° 0 mm 5 m/S 667 mmHg 47%
    20:00 +8°C° 0 mm 5 m/S 667 mmHg 47%
    21:00 +8°C° 0 mm 5 m/S 667 mmHg 47%
    22:00 +8°C° 0 mm 4 m/S 667 mmHg 49%
    23:00 +8°C° 0 mm 4 m/S 667 mmHg 50%
    Mehr zeigen